Netzbetreibername:;Netze Duisburg GmbH
Netz- oder Umspannebene:;
Lastgangtyp:;Netzverluste
gesetzliche Grundlage:;� 23c Abs. 3 Nr. 3 EnWG
Einheit:;kW
;
Datum;Wert
01.01.2023 00:00;4.074
01.01.2023 00:15;4.098
01.01.2023 00:30;4.141
01.01.2023 00:45;4.178
01.01.2023 01:00;4.152
01.01.2023 01:15;4.052
01.01.2023 01:30;3.935
01.01.2023 01:45;3.762
01.01.2023 02:00;3.660
01.01.2023 02:15;3.505
01.01.2023 02:30;3.387
01.01.2023 02:45;3.261
01.01.2023 03:00;3.175
01.01.2023 03:15;3.100
01.01.2023 03:30;3.006
01.01.2023 03:45;2.958
01.01.2023 04:00;2.900
01.01.2023 04:15;2.858
01.01.2023 04:30;2.820
01.01.2023 04:45;2.758
01.01.2023 05:00;2.760
01.01.2023 05:15;2.706
01.01.2023 05:30;2.654
01.01.2023 05:45;2.632
01.01.2023 06:00;2.665
01.01.2023 06:15;2.603
01.01.2023 06:30;2.626
01.01.2023 06:45;2.631
01.01.2023 07:00;2.680
01.01.2023 07:15;2.768
01.01.2023 07:30;2.863
01.01.2023 07:45;2.984
01.01.2023 08:00;3.128
01.01.2023 08:15;3.319
01.01.2023 08:30;3.377
01.01.2023 08:45;3.585
01.01.2023 09:00;3.931
01.01.2023 09:15;4.305
01.01.2023 09:30;4.661
01.01.2023 09:45;5.025
01.01.2023 10:00;5.436
01.01.2023 10:15;5.957
01.01.2023 10:30;6.317
01.01.2023 10:45;6.738
01.01.2023 11:00;7.131
01.01.2023 11:15;7.510
01.01.2023 11:30;7.820
01.01.2023 11:45;8.128
01.01.2023 12:00;8.407
01.01.2023 12:15;8.792
01.01.2023 12:30;8.837
01.01.2023 12:45;9.016
01.01.2023 13:00;9.031
01.01.2023 13:15;9.174
01.01.2023 13:30;9.172
01.01.2023 13:45;9.139
01.01.2023 14:00;9.224
01.01.2023 14:15;9.403
01.01.2023 14:30;9.477
01.01.2023 14:45;9.333
01.01.2023 15:00;9.450
01.01.2023 15:15;9.319
01.01.2023 15:30;9.227
01.01.2023 15:45;9.080
01.01.2023 16:00;9.058
01.01.2023 16:15;9.312
01.01.2023 16:30;9.669
01.01.2023 16:45;10.337
01.01.2023 17:00;10.831
01.01.2023 17:15;11.160
01.01.2023 17:30;11.134
01.01.2023 17:45;11.180
01.01.2023 18:00;11.185
01.01.2023 18:15;11.103
01.01.2023 18:30;10.957
01.01.2023 18:45;10.771
01.01.2023 19:00;10.490
01.01.2023 19:15;10.182
01.01.2023 19:30;9.831
01.01.2023 19:45;9.647
01.01.2023 20:00;9.322
01.01.2023 20:15;9.027
01.01.2023 20:30;8.928
01.01.2023 20:45;8.635
01.01.2023 21:00;8.322
01.01.2023 21:15;8.193
01.01.2023 21:30;7.940
01.01.2023 21:45;7.758
01.01.2023 22:00;7.285
01.01.2023 22:15;6.892
01.01.2023 22:30;6.442
01.01.2023 22:45;5.953
01.01.2023 23:00;5.509
01.01.2023 23:15;5.234
01.01.2023 23:30;4.831
01.01.2023 23:45;4.442
02.01.2023 00:00;4.137
02.01.2023 00:15;3.863
02.01.2023 00:30;3.650
02.01.2023 00:45;3.457
02.01.2023 01:00;3.299
02.01.2023 01:15;3.150
02.01.2023 01:30;3.044
02.01.2023 01:45;2.925
02.01.2023 02:00;2.851
02.01.2023 02:15;2.798
02.01.2023 02:30;2.765
02.01.2023 02:45;2.748
02.01.2023 03:00;2.770
02.01.2023 03:15;2.792
02.01.2023 03:30;2.804
02.01.2023 03:45;2.862
02.01.2023 04:00;2.945
02.01.2023 04:15;2.998
02.01.2023 04:30;3.088
02.01.2023 04:45;3.212
02.01.2023 05:00;3.451
02.01.2023 05:15;3.590
02.01.2023 05:30;3.752
02.01.2023 05:45;3.994
02.01.2023 06:00;4.514
02.01.2023 06:15;4.791
02.01.2023 06:30;5.054
02.01.2023 06:45;5.341
02.01.2023 07:00;5.808
02.01.2023 07:15;6.149
02.01.2023 07:30;6.429
02.01.2023 07:45;6.748
02.01.2023 08:00;7.168
02.01.2023 08:15;7.430
02.01.2023 08:30;7.665
02.01.2023 08:45;8.016
02.01.2023 09:00;8.317
02.01.2023 09:15;8.699
02.01.2023 09:30;9.048
02.01.2023 09:45;9.416
02.01.2023 10:00;9.760
02.01.2023 10:15;10.015
02.01.2023 10:30;10.187
02.01.2023 10:45;10.386
02.01.2023 11:00;10.655
02.01.2023 11:15;10.929
02.01.2023 11:30;10.983
02.01.2023 11:45;11.150
02.01.2023 12:00;11.456
02.01.2023 12:15;11.717
02.01.2023 12:30;11.797
02.01.2023 12:45;11.754
02.01.2023 13:00;11.656
02.01.2023 13:15;11.677
02.01.2023 13:30;11.638
02.01.2023 13:45;11.463
02.01.2023 14:00;11.792
02.01.2023 14:15;11.836
02.01.2023 14:30;11.726
02.01.2023 14:45;11.688
02.01.2023 15:00;11.640
02.01.2023 15:15;11.493
02.01.2023 15:30;11.405
02.01.2023 15:45;11.256
02.01.2023 16:00;11.275
02.01.2023 16:15;11.448
02.01.2023 16:30;11.496
02.01.2023 16:45;12.190
02.01.2023 17:00;12.903
02.01.2023 17:15;13.210
02.01.2023 17:30;13.364
02.01.2023 17:45;13.543
02.01.2023 18:00;13.561
02.01.2023 18:15;13.465
02.01.2023 18:30;13.164
02.01.2023 18:45;13.074
02.01.2023 19:00;12.667
02.01.2023 19:15;12.373
02.01.2023 19:30;11.998
02.01.2023 19:45;11.595
02.01.2023 20:00;11.107
02.01.2023 20:15;10.675
02.01.2023 20:30;10.419
02.01.2023 20:45;10.057
02.01.2023 21:00;9.602
02.01.2023 21:15;9.375
02.01.2023 21:30;9.060
02.01.2023 21:45;8.669
02.01.2023 22:00;8.108
02.01.2023 22:15;7.627
02.01.2023 22:30;7.117
02.01.2023 22:45;6.586
02.01.2023 23:00;6.063
02.01.2023 23:15;5.709
02.01.2023 23:30;5.365
02.01.2023 23:45;4.994
03.01.2023 00:00;4.611
03.01.2023 00:15;4.307
03.01.2023 00:30;4.094
03.01.2023 00:45;3.869
03.01.2023 01:00;3.630
03.01.2023 01:15;3.486
03.01.2023 01:30;3.376
03.01.2023 01:45;3.276
03.01.2023 02:00;3.210
03.01.2023 02:15;3.135
03.01.2023 02:30;3.116
03.01.2023 02:45;3.108
03.01.2023 03:00;3.139
03.01.2023 03:15;3.130
03.01.2023 03:30;3.152
03.01.2023 03:45;3.176
03.01.2023 04:00;3.318
03.01.2023 04:15;3.371
03.01.2023 04:30;3.519
03.01.2023 04:45;3.627
03.01.2023 05:00;3.838
03.01.2023 05:15;3.969
03.01.2023 05:30;4.136
03.01.2023 05:45;4.389
03.01.2023 06:00;4.919
03.01.2023 06:15;5.215
03.01.2023 06:30;5.518
03.01.2023 06:45;5.842
03.01.2023 07:00;6.321
03.01.2023 07:15;6.678
03.01.2023 07:30;7.028
03.01.2023 07:45;7.380
03.01.2023 08:00;7.844
03.01.2023 08:15;7.963
03.01.2023 08:30;8.189
03.01.2023 08:45;8.531
03.01.2023 09:00;8.857
03.01.2023 09:15;9.197
03.01.2023 09:30;9.322
03.01.2023 09:45;9.560
03.01.2023 10:00;9.803
03.01.2023 10:15;9.956
03.01.2023 10:30;10.119
03.01.2023 10:45;10.459
03.01.2023 11:00;10.531
03.01.2023 11:15;10.679
03.01.2023 11:30;10.906
03.01.2023 11:45;11.165
03.01.2023 12:00;11.482
03.01.2023 12:15;11.627
03.01.2023 12:30;11.760
03.01.2023 12:45;11.679
03.01.2023 13:00;11.511
03.01.2023 13:15;11.378
03.01.2023 13:30;11.271
03.01.2023 13:45;11.052
03.01.2023 14:00;11.626
03.01.2023 14:15;11.848
03.01.2023 14:30;11.734
03.01.2023 14:45;11.433
03.01.2023 15:00;11.347
03.01.2023 15:15;11.321
03.01.2023 15:30;11.186
03.01.2023 15:45;11.040
03.01.2023 16:00;11.009
03.01.2023 16:15;11.153
03.01.2023 16:30;11.606
03.01.2023 16:45;12.431
03.01.2023 17:00;13.299
03.01.2023 17:15;13.833
03.01.2023 17:30;14.049
03.01.2023 17:45;14.055
03.01.2023 18:00;14.008
03.01.2023 18:15;13.866
03.01.2023 18:30;13.633
03.01.2023 18:45;13.554
03.01.2023 19:00;13.232
03.01.2023 19:15;12.692
03.01.2023 19:30;12.318
03.01.2023 19:45;11.902
03.01.2023 20:00;11.465
03.01.2023 20:15;11.075
03.01.2023 20:30;10.796
03.01.2023 20:45;10.445
03.01.2023 21:00;10.046
03.01.2023 21:15;9.729
03.01.2023 21:30;9.346
03.01.2023 21:45;9.217
03.01.2023 22:00;8.608
03.01.2023 22:15;7.994
03.01.2023 22:30;7.359
03.01.2023 22:45;6.893
03.01.2023 23:00;6.301
03.01.2023 23:15;5.844
03.01.2023 23:30;5.405
03.01.2023 23:45;5.050
04.01.2023 00:00;4.653
04.01.2023 00:15;4.356
04.01.2023 00:30;4.097
04.01.2023 00:45;3.889
04.01.2023 01:00;3.681
04.01.2023 01:15;3.521
04.01.2023 01:30;3.378
04.01.2023 01:45;3.296
04.01.2023 02:00;3.227
04.01.2023 02:15;3.147
04.01.2023 02:30;3.129
04.01.2023 02:45;3.123
04.01.2023 03:00;3.157
04.01.2023 03:15;3.176
04.01.2023 03:30;3.195
04.01.2023 03:45;3.210
04.01.2023 04:00;3.311
04.01.2023 04:15;3.372
04.01.2023 04:30;3.439
04.01.2023 04:45;3.561
04.01.2023 05:00;3.820
04.01.2023 05:15;3.950
04.01.2023 05:30;4.179
04.01.2023 05:45;4.403
04.01.2023 06:00;5.034
04.01.2023 06:15;5.375
04.01.2023 06:30;5.668
04.01.2023 06:45;5.991
04.01.2023 07:00;6.406
04.01.2023 07:15;6.822
04.01.2023 07:30;7.127
04.01.2023 07:45;7.406
04.01.2023 08:00;7.887
04.01.2023 08:15;8.224
04.01.2023 08:30;8.243
04.01.2023 08:45;8.527
04.01.2023 09:00;8.879
04.01.2023 09:15;9.174
04.01.2023 09:30;9.419
04.01.2023 09:45;9.628
04.01.2023 10:00;9.985
04.01.2023 10:15;10.302
04.01.2023 10:30;10.511
04.01.2023 10:45;10.823
04.01.2023 11:00;11.068
04.01.2023 11:15;11.362
04.01.2023 11:30;11.435
04.01.2023 11:45;11.463
04.01.2023 12:00;11.826
04.01.2023 12:15;12.033
04.01.2023 12:30;12.243
04.01.2023 12:45;12.196
04.01.2023 13:00;12.075
04.01.2023 13:15;12.148
04.01.2023 13:30;12.118
04.01.2023 13:45;11.970
04.01.2023 14:00;12.394
04.01.2023 14:15;12.464
04.01.2023 14:30;12.396
04.01.2023 14:45;12.256
04.01.2023 15:00;12.211
04.01.2023 15:15;12.213
04.01.2023 15:30;12.196
04.01.2023 15:45;12.139
04.01.2023 16:00;12.123
04.01.2023 16:15;12.063
04.01.2023 16:30;12.351
04.01.2023 16:45;12.829
04.01.2023 17:00;13.473
04.01.2023 17:15;13.746
04.01.2023 17:30;13.889
04.01.2023 17:45;14.034
04.01.2023 18:00;13.890
04.01.2023 18:15;13.776
04.01.2023 18:30;13.627
04.01.2023 18:45;13.437
04.01.2023 19:00;13.119
04.01.2023 19:15;12.872
04.01.2023 19:30;12.424
04.01.2023 19:45;11.915
04.01.2023 20:00;11.361
04.01.2023 20:15;10.849
04.01.2023 20:30;10.630
04.01.2023 20:45;10.277
04.01.2023 21:00;9.928
04.01.2023 21:15;9.662
04.01.2023 21:30;9.297
04.01.2023 21:45;8.997
04.01.2023 22:00;8.278
04.01.2023 22:15;7.706
04.01.2023 22:30;7.084
04.01.2023 22:45;6.562
04.01.2023 23:00;6.001
04.01.2023 23:15;5.624
04.01.2023 23:30;5.250
04.01.2023 23:45;4.882
05.01.2023 00:00;4.561
05.01.2023 00:15;4.217
05.01.2023 00:30;3.966
05.01.2023 00:45;3.794
05.01.2023 01:00;3.581
05.01.2023 01:15;3.415
05.01.2023 01:30;3.287
05.01.2023 01:45;3.194
05.01.2023 02:00;3.118
05.01.2023 02:15;3.042
05.01.2023 02:30;2.982
05.01.2023 02:45;2.947
05.01.2023 03:00;2.974
05.01.2023 03:15;2.973
05.01.2023 03:30;3.010
05.01.2023 03:45;3.046
05.01.2023 04:00;3.166
05.01.2023 04:15;3.235
05.01.2023 04:30;3.354
05.01.2023 04:45;3.486
05.01.2023 05:00;3.697
05.01.2023 05:15;3.842
05.01.2023 05:30;4.061
05.01.2023 05:45;4.327
05.01.2023 06:00;4.908
05.01.2023 06:15;5.203
05.01.2023 06:30;5.473
05.01.2023 06:45;5.815
05.01.2023 07:00;6.366
05.01.2023 07:15;6.688
05.01.2023 07:30;6.975
05.01.2023 07:45;7.470
05.01.2023 08:00;7.898
05.01.2023 08:15;8.070
05.01.2023 08:30;8.389
05.01.2023 08:45;8.642
05.01.2023 09:00;8.898
05.01.2023 09:15;9.238
05.01.2023 09:30;9.560
05.01.2023 09:45;9.795
05.01.2023 10:00;10.009
05.01.2023 10:15;10.265
05.01.2023 10:30;10.398
05.01.2023 10:45;10.531
05.01.2023 11:00;10.787
05.01.2023 11:15;10.964
05.01.2023 11:30;11.121
05.01.2023 11:45;11.336
05.01.2023 12:00;11.480
05.01.2023 12:15;11.636
05.01.2023 12:30;11.667
05.01.2023 12:45;11.623
05.01.2023 13:00;11.466
05.01.2023 13:15;11.505
05.01.2023 13:30;11.235
05.01.2023 13:45;10.908
05.01.2023 14:00;11.300
05.01.2023 14:15;11.427
05.01.2023 14:30;11.263
05.01.2023 14:45;11.211
05.01.2023 15:00;11.353
05.01.2023 15:15;11.196
05.01.2023 15:30;11.068
05.01.2023 15:45;10.995
05.01.2023 16:00;11.013
05.01.2023 16:15;11.320
05.01.2023 16:30;11.740
05.01.2023 16:45;12.272
05.01.2023 17:00;12.978
05.01.2023 17:15;13.493
05.01.2023 17:30;13.653
05.01.2023 17:45;13.819
05.01.2023 18:00;13.798
05.01.2023 18:15;13.530
05.01.2023 18:30;13.162
05.01.2023 18:45;13.134
05.01.2023 19:00;12.972
05.01.2023 19:15;12.580
05.01.2023 19:30;12.038
05.01.2023 19:45;11.658
05.01.2023 20:00;11.171
05.01.2023 20:15;10.799
05.01.2023 20:30;10.503
05.01.2023 20:45;10.243
05.01.2023 21:00;9.773
05.01.2023 21:15;9.630
05.01.2023 21:30;9.237
05.01.2023 21:45;8.884
05.01.2023 22:00;8.290
05.01.2023 22:15;7.744
05.01.2023 22:30;7.113
05.01.2023 22:45;6.634
05.01.2023 23:00;6.127
05.01.2023 23:15;5.735
05.01.2023 23:30;5.293
05.01.2023 23:45;4.944
06.01.2023 00:00;4.581
06.01.2023 00:15;4.277
06.01.2023 00:30;4.001
06.01.2023 00:45;3.789
06.01.2023 01:00;3.559
06.01.2023 01:15;3.424
06.01.2023 01:30;3.253
06.01.2023 01:45;3.166
06.01.2023 02:00;3.079
06.01.2023 02:15;3.019
06.01.2023 02:30;2.958
06.01.2023 02:45;2.930
06.01.2023 03:00;2.953
06.01.2023 03:15;2.968
06.01.2023 03:30;2.983
06.01.2023 03:45;3.056
06.01.2023 04:00;3.141
06.01.2023 04:15;3.200
06.01.2023 04:30;3.307
06.01.2023 04:45;3.383
06.01.2023 05:00;3.631
06.01.2023 05:15;3.764
06.01.2023 05:30;3.935
06.01.2023 05:45;4.259
06.01.2023 06:00;4.795
06.01.2023 06:15;5.108
06.01.2023 06:30;5.463
06.01.2023 06:45;5.795
06.01.2023 07:00;6.286
06.01.2023 07:15;6.687
06.01.2023 07:30;7.009
06.01.2023 07:45;7.401
06.01.2023 08:00;7.965
06.01.2023 08:15;8.122
06.01.2023 08:30;8.282
06.01.2023 08:45;8.596
06.01.2023 09:00;8.930
06.01.2023 09:15;9.297
06.01.2023 09:30;9.510
06.01.2023 09:45;9.727
06.01.2023 10:00;10.020
06.01.2023 10:15;10.264
06.01.2023 10:30;10.542
06.01.2023 10:45;10.857
06.01.2023 11:00;11.006
06.01.2023 11:15;11.278
06.01.2023 11:30;11.268
06.01.2023 11:45;11.489
06.01.2023 12:00;11.705
06.01.2023 12:15;11.714
06.01.2023 12:30;11.441
06.01.2023 12:45;11.234
06.01.2023 13:00;11.199
06.01.2023 13:15;11.007
06.01.2023 13:30;11.027
06.01.2023 13:45;11.140
06.01.2023 14:00;11.511
06.01.2023 14:15;11.760
06.01.2023 14:30;11.777
06.01.2023 14:45;11.599
06.01.2023 15:00;11.869
06.01.2023 15:15;11.690
06.01.2023 15:30;11.497
06.01.2023 15:45;11.195
06.01.2023 16:00;11.174
06.01.2023 16:15;11.441
06.01.2023 16:30;11.952
06.01.2023 16:45;12.544
06.01.2023 17:00;13.170
06.01.2023 17:15;13.520
06.01.2023 17:30;13.626
06.01.2023 17:45;13.472
06.01.2023 18:00;13.367
06.01.2023 18:15;13.220
06.01.2023 18:30;12.969
06.01.2023 18:45;12.720
06.01.2023 19:00;12.330
06.01.2023 19:15;11.913
06.01.2023 19:30;11.538
06.01.2023 19:45;11.215
06.01.2023 20:00;10.606
06.01.2023 20:15;10.259
06.01.2023 20:30;10.032
06.01.2023 20:45;9.762
06.01.2023 21:00;9.490
06.01.2023 21:15;9.188
06.01.2023 21:30;8.990
06.01.2023 21:45;8.603
06.01.2023 22:00;8.177
06.01.2023 22:15;7.647
06.01.2023 22:30;7.265
06.01.2023 22:45;6.967
06.01.2023 23:00;6.417
06.01.2023 23:15;5.988
06.01.2023 23:30;5.597
06.01.2023 23:45;5.234
07.01.2023 00:00;4.928
07.01.2023 00:15;4.573
07.01.2023 00:30;4.291
07.01.2023 00:45;4.042
07.01.2023 01:00;3.822
07.01.2023 01:15;3.647
07.01.2023 01:30;3.486
07.01.2023 01:45;3.335
07.01.2023 02:00;3.231
07.01.2023 02:15;3.159
07.01.2023 02:30;3.089
07.01.2023 02:45;3.024
07.01.2023 03:00;3.006
07.01.2023 03:15;2.987
07.01.2023 03:30;2.993
07.01.2023 03:45;2.969
07.01.2023 04:00;3.002
07.01.2023 04:15;3.011
07.01.2023 04:30;3.005
07.01.2023 04:45;3.007
07.01.2023 05:00;3.081
07.01.2023 05:15;3.117
07.01.2023 05:30;3.119
07.01.2023 05:45;3.233
07.01.2023 06:00;3.455
07.01.2023 06:15;3.514
07.01.2023 06:30;3.674
07.01.2023 06:45;3.790
07.01.2023 07:00;4.054
07.01.2023 07:15;4.340
07.01.2023 07:30;4.681
07.01.2023 07:45;5.031
07.01.2023 08:00;5.520
07.01.2023 08:15;5.737
07.01.2023 08:30;6.161
07.01.2023 08:45;6.672
07.01.2023 09:00;7.193
07.01.2023 09:15;7.801
07.01.2023 09:30;8.284
07.01.2023 09:45;8.743
07.01.2023 10:00;9.235
07.01.2023 10:15;9.573
07.01.2023 10:30;9.760
07.01.2023 10:45;9.857
07.01.2023 11:00;9.904
07.01.2023 11:15;10.178
07.01.2023 11:30;10.240
07.01.2023 11:45;10.529
07.01.2023 12:00;10.883
07.01.2023 12:15;11.006
07.01.2023 12:30;10.993
07.01.2023 12:45;10.905
07.01.2023 13:00;10.521
07.01.2023 13:15;10.511
07.01.2023 13:30;10.290
07.01.2023 13:45;10.175
07.01.2023 14:00;10.482
07.01.2023 14:15;10.691
07.01.2023 14:30;10.669
07.01.2023 14:45;10.506
07.01.2023 15:00;10.329
07.01.2023 15:15;10.293
07.01.2023 15:30;10.297
07.01.2023 15:45;10.282
07.01.2023 16:00;10.183
07.01.2023 16:15;10.260
07.01.2023 16:30;10.666
07.01.2023 16:45;11.275
07.01.2023 17:00;12.035
07.01.2023 17:15;12.558
07.01.2023 17:30;12.791
07.01.2023 17:45;12.722
07.01.2023 18:00;12.528
07.01.2023 18:15;12.367
07.01.2023 18:30;12.062
07.01.2023 18:45;11.802
07.01.2023 19:00;11.627
07.01.2023 19:15;11.176
07.01.2023 19:30;10.928
07.01.2023 19:45;10.445
07.01.2023 20:00;9.988
07.01.2023 20:15;9.623
07.01.2023 20:30;9.325
07.01.2023 20:45;9.080
07.01.2023 21:00;8.802
07.01.2023 21:15;8.616
07.01.2023 21:30;8.331
07.01.2023 21:45;8.128
07.01.2023 22:00;7.743
07.01.2023 22:15;7.369
07.01.2023 22:30;6.917
07.01.2023 22:45;6.595
07.01.2023 23:00;6.162
07.01.2023 23:15;5.805
07.01.2023 23:30;5.505
07.01.2023 23:45;5.100
08.01.2023 00:00;4.793
08.01.2023 00:15;4.489
08.01.2023 00:30;4.267
08.01.2023 00:45;4.004
08.01.2023 01:00;3.774
08.01.2023 01:15;3.610
08.01.2023 01:30;3.409
08.01.2023 01:45;3.288
08.01.2023 02:00;3.179
08.01.2023 02:15;3.100
08.01.2023 02:30;3.033
08.01.2023 02:45;2.953
08.01.2023 03:00;2.929
08.01.2023 03:15;2.894
08.01.2023 03:30;2.863
08.01.2023 03:45;2.871
08.01.2023 04:00;2.841
08.01.2023 04:15;2.828
08.01.2023 04:30;2.837
08.01.2023 04:45;2.828
08.01.2023 05:00;2.866
08.01.2023 05:15;2.858
08.01.2023 05:30;2.831
08.01.2023 05:45;2.851
08.01.2023 06:00;2.925
08.01.2023 06:15;2.941
08.01.2023 06:30;3.014
08.01.2023 06:45;3.080
08.01.2023 07:00;3.289
08.01.2023 07:15;3.475
08.01.2023 07:30;3.776
08.01.2023 07:45;4.088
08.01.2023 08:00;4.432
08.01.2023 08:15;4.728
08.01.2023 08:30;5.091
08.01.2023 08:45;5.534
08.01.2023 09:00;6.218
08.01.2023 09:15;6.829
08.01.2023 09:30;7.384
08.01.2023 09:45;7.913
08.01.2023 10:00;8.269
08.01.2023 10:15;8.763
08.01.2023 10:30;9.109
08.01.2023 10:45;9.584
08.01.2023 11:00;10.055
08.01.2023 11:15;10.312
08.01.2023 11:30;10.551
08.01.2023 11:45;10.903
08.01.2023 12:00;11.284
08.01.2023 12:15;11.895
08.01.2023 12:30;12.006
08.01.2023 12:45;11.982
08.01.2023 13:00;12.061
08.01.2023 13:15;11.883
08.01.2023 13:30;11.283
08.01.2023 13:45;10.880
08.01.2023 14:00;10.989
08.01.2023 14:15;10.914
08.01.2023 14:30;10.914
08.01.2023 14:45;10.800
08.01.2023 15:00;10.713
08.01.2023 15:15;10.493
08.01.2023 15:30;10.369
08.01.2023 15:45;10.426
08.01.2023 16:00;10.397
08.01.2023 16:15;10.531
08.01.2023 16:30;10.735
08.01.2023 16:45;11.330
08.01.2023 17:00;12.372
08.01.2023 17:15;13.304
08.01.2023 17:30;13.584
08.01.2023 17:45;13.858
08.01.2023 18:00;13.970
08.01.2023 18:15;13.796
08.01.2023 18:30;13.569
08.01.2023 18:45;13.353
08.01.2023 19:00;13.041
08.01.2023 19:15;12.640
08.01.2023 19:30;12.372
08.01.2023 19:45;12.001
08.01.2023 20:00;11.492
08.01.2023 20:15;10.865
08.01.2023 20:30;10.433
08.01.2023 20:45;10.024
08.01.2023 21:00;9.609
08.01.2023 21:15;9.309
08.01.2023 21:30;8.797
08.01.2023 21:45;8.564
08.01.2023 22:00;8.009
08.01.2023 22:15;7.369
08.01.2023 22:30;6.861
08.01.2023 22:45;6.301
08.01.2023 23:00;5.707
08.01.2023 23:15;5.261
08.01.2023 23:30;4.842
08.01.2023 23:45;4.532
09.01.2023 00:00;4.192
09.01.2023 00:15;3.908
09.01.2023 00:30;3.711
09.01.2023 00:45;3.524
09.01.2023 01:00;3.375
09.01.2023 01:15;3.262
09.01.2023 01:30;3.145
09.01.2023 01:45;3.056
09.01.2023 02:00;3.011
09.01.2023 02:15;2.969
09.01.2023 02:30;2.926
09.01.2023 02:45;2.920
09.01.2023 03:00;2.953
09.01.2023 03:15;2.991
09.01.2023 03:30;3.036
09.01.2023 03:45;3.111
09.01.2023 04:00;3.204
09.01.2023 04:15;3.315
09.01.2023 04:30;3.507
09.01.2023 04:45;3.605
09.01.2023 05:00;3.943
09.01.2023 05:15;4.128
09.01.2023 05:30;4.442
09.01.2023 05:45;4.868
09.01.2023 06:00;5.760
09.01.2023 06:15;6.426
09.01.2023 06:30;6.967
09.01.2023 06:45;7.448
09.01.2023 07:00;8.114
09.01.2023 07:15;8.400
09.01.2023 07:30;8.511
09.01.2023 07:45;8.638
09.01.2023 08:00;8.940
09.01.2023 08:15;9.063
09.01.2023 08:30;9.198
09.01.2023 08:45;9.459
09.01.2023 09:00;9.566
09.01.2023 09:15;9.816
09.01.2023 09:30;9.918
09.01.2023 09:45;10.096
09.01.2023 10:00;10.220
09.01.2023 10:15;10.382
09.01.2023 10:30;10.489
09.01.2023 10:45;10.696
09.01.2023 11:00;10.849
09.01.2023 11:15;10.966
09.01.2023 11:30;11.100
09.01.2023 11:45;11.068
09.01.2023 12:00;11.406
09.01.2023 12:15;11.712
09.01.2023 12:30;11.759
09.01.2023 12:45;11.709
09.01.2023 13:00;11.629
09.01.2023 13:15;11.686
09.01.2023 13:30;11.525
09.01.2023 13:45;11.493
09.01.2023 14:00;11.841
09.01.2023 14:15;11.899
09.01.2023 14:30;11.861
09.01.2023 14:45;11.693
09.01.2023 15:00;11.728
09.01.2023 15:15;11.607
09.01.2023 15:30;11.425
09.01.2023 15:45;11.475
09.01.2023 16:00;11.690
09.01.2023 16:15;11.830
09.01.2023 16:30;12.103
09.01.2023 16:45;12.619
09.01.2023 17:00;13.526
09.01.2023 17:15;13.904
09.01.2023 17:30;14.059
09.01.2023 17:45;14.206
09.01.2023 18:00;14.174
09.01.2023 18:15;14.195
09.01.2023 18:30;14.071
09.01.2023 18:45;14.042
09.01.2023 19:00;13.590
09.01.2023 19:15;13.282
09.01.2023 19:30;12.808
09.01.2023 19:45;12.532
09.01.2023 20:00;11.938
09.01.2023 20:15;11.557
09.01.2023 20:30;11.156
09.01.2023 20:45;10.749
09.01.2023 21:00;10.219
09.01.2023 21:15;9.922
09.01.2023 21:30;9.452
09.01.2023 21:45;9.070
09.01.2023 22:00;8.479
09.01.2023 22:15;7.961
09.01.2023 22:30;7.437
09.01.2023 22:45;6.719
09.01.2023 23:00;6.148
09.01.2023 23:15;5.754
09.01.2023 23:30;5.255
09.01.2023 23:45;4.902
10.01.2023 00:00;4.574
10.01.2023 00:15;4.279
10.01.2023 00:30;4.041
10.01.2023 00:45;3.843
10.01.2023 01:00;3.694
10.01.2023 01:15;3.536
10.01.2023 01:30;3.400
10.01.2023 01:45;3.338
10.01.2023 02:00;3.291
10.01.2023 02:15;3.225
10.01.2023 02:30;3.208
10.01.2023 02:45;3.203
10.01.2023 03:00;3.244
10.01.2023 03:15;3.276
10.01.2023 03:30;3.330
10.01.2023 03:45;3.388
10.01.2023 04:00;3.490
10.01.2023 04:15;3.587
10.01.2023 04:30;3.738
10.01.2023 04:45;3.858
10.01.2023 05:00;4.158
10.01.2023 05:15;4.352
10.01.2023 05:30;4.691
10.01.2023 05:45;5.083
10.01.2023 06:00;5.857
10.01.2023 06:15;6.455
10.01.2023 06:30;6.998
10.01.2023 06:45;7.481
10.01.2023 07:00;8.207
10.01.2023 07:15;8.588
10.01.2023 07:30;8.833
10.01.2023 07:45;8.968
10.01.2023 08:00;9.342
10.01.2023 08:15;9.388
10.01.2023 08:30;9.519
10.01.2023 08:45;9.713
10.01.2023 09:00;9.858
10.01.2023 09:15;10.038
10.01.2023 09:30;10.078
10.01.2023 09:45;10.055
10.01.2023 10:00;10.138
10.01.2023 10:15;10.224
10.01.2023 10:30;10.117
10.01.2023 10:45;10.190
10.01.2023 11:00;10.317
10.01.2023 11:15;10.575
10.01.2023 11:30;10.694
10.01.2023 11:45;10.858
10.01.2023 12:00;11.079
10.01.2023 12:15;11.252
10.01.2023 12:30;11.329
10.01.2023 12:45;11.443
10.01.2023 13:00;11.500
10.01.2023 13:15;11.439
10.01.2023 13:30;11.339
10.01.2023 13:45;11.370
10.01.2023 14:00;11.628
10.01.2023 14:15;11.836
10.01.2023 14:30;11.862
10.01.2023 14:45;11.728
10.01.2023 15:00;11.802
10.01.2023 15:15;11.896
10.01.2023 15:30;11.815
10.01.2023 15:45;11.752
10.01.2023 16:00;11.923
10.01.2023 16:15;12.162
10.01.2023 16:30;12.440
10.01.2023 16:45;13.028
10.01.2023 17:00;13.911
10.01.2023 17:15;14.387
10.01.2023 17:30;14.563
10.01.2023 17:45;14.681
10.01.2023 18:00;14.753
10.01.2023 18:15;14.684
10.01.2023 18:30;14.684
10.01.2023 18:45;14.707
10.01.2023 19:00;14.448
10.01.2023 19:15;14.144
10.01.2023 19:30;13.603
10.01.2023 19:45;13.110
10.01.2023 20:00;12.469
10.01.2023 20:15;11.942
10.01.2023 20:30;11.585
10.01.2023 20:45;11.065
10.01.2023 21:00;10.678
10.01.2023 21:15;10.347
10.01.2023 21:30;9.840
10.01.2023 21:45;9.609
10.01.2023 22:00;8.882
10.01.2023 22:15;8.214
10.01.2023 22:30;7.536
10.01.2023 22:45;6.946
10.01.2023 23:00;6.326
10.01.2023 23:15;5.788
10.01.2023 23:30;5.335
10.01.2023 23:45;5.004
11.01.2023 00:00;4.604
11.01.2023 00:15;4.266
11.01.2023 00:30;4.025
11.01.2023 00:45;3.806
11.01.2023 01:00;3.632
11.01.2023 01:15;3.508
11.01.2023 01:30;3.394
11.01.2023 01:45;3.314
11.01.2023 02:00;3.258
11.01.2023 02:15;3.206
11.01.2023 02:30;3.210
11.01.2023 02:45;3.181
11.01.2023 03:00;3.203
11.01.2023 03:15;3.196
11.01.2023 03:30;3.226
11.01.2023 03:45;3.302